Location: Rancho Del Sol Observatory
(38.7214°N, 120.6350°W)
Time: 14:37:19
(UTC-08:00)

Daily predictions for brighter satellites

Satellite Brightness Start Highest point End
(mag) Time Altitude Azimuth Time Altitude Azimuth Time Altitude Azimuth
ATLAS 2AS CENTAUR R/B 3.3 16:58:04 10° SW 17:05:48 79° WNW 17:13:58 10° NNE
CSL-04 Rocket 3.8 17:02:08 10° SSE 17:07:25 56° ENE 17:12:48 10° N
ATLAS 3B R/B 2.8 17:01:02 10° NNW 17:07:30 49° NE 17:13:45 10° SE
Cosmos 1743 2.8 17:07:20 10° N 17:11:10 56° E 17:14:59 10° SSE
Abrixas rocket 4.2 17:14:34 10° WNW 17:16:55 18° NNW 17:19:16 10° NNE
Cosmos 1697 Rocket 3.7 17:12:31 10° SSE 17:17:14 28° ESE 17:21:57 10° NE
USA 215 3.3 17:13:32 10° ESE 17:19:59 67° NE 17:26:28 10° NW
PSLV R/B 3.1 17:17:08 10° W 17:20:19 69° N 17:23:20 11° ENE
Meteor 1-19 Rocket 4.3 17:16:31 10° S 17:22:09 74° E 17:27:57 10° NNE
NOSS 8 (A) 4.3 17:21:11 10° SSW 17:24:32 73° ESE 17:27:46 10° NE
ISS -3.9 17:22:07 10° NW 17:25:25 83° NE 17:28:42 10° SE
BREEZE-M DEB (TANK) 4.4 17:24:27 10° NNW 17:26:08 15° N 17:28:40 10° NE
NOSS 3-4 (A) 4.1 17:21:58 10° S 17:27:33 37° ESE 17:33:16 10° NE
NOSS 3-4 (C) 4.1 17:22:05 10° S 17:27:40 36° ESE 17:33:20 10° NE
Cosmos 2082 3.9 17:25:18 10° NNW 17:30:45 49° ENE 17:36:11 10° SE
ERS-2 3.5 17:28:39 10° ESE 17:31:15 19° ENE 17:33:52 10° NNE
SJ-7 4.4 17:27:40 10° SSE 17:31:41 86° W 17:35:41 10° NNW
USA 161 4.4 17:31:44 10° NNW 17:33:51 18° WNW 17:36:00 10° WSW
CZ-2C R/B 4.5 17:32:05 10° SSW 17:36:44 33° W 17:41:24 10° NNW
Cosmos 1455 Rocket 3.1 17:33:31 10° N 17:37:56 86° W 17:42:19 10° S
Cosmos 2266 Rocket 4.0 17:34:17 10° N 17:40:19 58° E 17:46:23 10° SSE
SPOT 3 Rocket 4.3 17:36:00 10° SE 17:40:25 29° ENE 17:44:50 10° N
Cosmos 1271 Rocket 3.4 17:37:49 10° NNW 17:41:35 59° W 17:45:22 10° S
Cosmos 1544 Rocket 3.8 17:37:53 10° NNW 17:42:14 70° W 17:46:31 10° S
Cosmos 2227 Rocket 2.1 17:36:49 10° NNW 17:42:31 79° ENE 17:48:09 10° SSE
CORIOLIS 4.2 17:39:29 10° SSE 17:44:54 88° ENE 17:50:20 10° NNW
YAOGAN 1 2.6 17:42:07 10° SSE 17:46:20 57° ENE 17:50:36 10° N
CENTAUR R/B 4.0 17:40:54 10° NNW 17:47:09 25° NE 17:51:51 16° E
USA 116 3.0 17:44:56 10° NNE 17:48:05 82° ESE 17:51:10 10° S
Ariane Rocket 3.3 17:43:18 10° S 17:48:20 70° WSW 17:53:24 10° NNW
Meteor 2-9 Rocket 4.1 17:49:53 10° N 17:55:24 90° E 18:00:45 10° S
MOS 1 4.4 17:50:01 10° SE 17:55:31 53° ENE 18:01:01 10° N
Cosmos 1484 Rocket 4.2 17:53:33 10° S 17:57:22 42° W 18:01:12 10° NNW
Cosmos 1980 Rocket 2.8 17:53:04 10° S 17:58:11 36° ESE 18:01:25 20° NE
Meteor 1-23 Rocket 4.2 17:54:22 10° S 18:00:07 73° E 18:05:48 10° NNE
Cosmos 1666 4.4 17:56:43 10° NNW 18:00:10 35° W 18:03:34 10° SSW
Cosmos 1269 Rocket 3.9 17:55:56 10° NNW 18:01:14 67° ENE 18:06:29 10° SSE
Cosmos 1125 Rocket 3.8 17:56:10 10° SSW 18:01:27 69° WNW 18:06:44 10° NNE
MONITOR-E 4.3 17:58:41 10° SSE 18:01:36 44° ENE 18:04:32 10° N
COSMO-SKYMED 1 2.5 17:59:36 10° NNE 18:03:57 71° ESE 18:08:16 10° S
SJ 16-02 2.0 18:02:54 10° SSW 18:07:12 55° WNW 18:11:32 10° N
CZ-2C R/B 4.2 18:02:36 10° N 18:07:15 63° WNW 18:11:56 10° SSW
Cosmos 2297 Rocket 2.4 18:03:25 10° NNW 18:09:05 74° WSW 18:14:42 10° SSE
Cosmos 1048 Rocket 4.2 18:06:02 10° NNW 18:11:26 80° WSW 18:16:47 10° SSE
Atlas Centaur 2 3.9 18:07:22 10° WSW 18:11:31 22° SSW 18:15:03 10° SSE
Cosmos 1656 4.1 18:06:55 10° SSW 18:12:26 63° WNW 18:17:55 10° NNE
USA 238 DEB 4.3 18:08:39 10° NW 18:15:39 62° WSW 18:22:42 10° SSE
USA 238 4.3 18:08:45 10° NW 18:15:46 62° WSW 18:22:49 10° SSE
MTI 4.2 18:14:00 16° N 18:16:28 64° WNW 18:19:41 10° SSW
RESURS DK-1 3.2 18:16:56 10° S 18:20:16 32° ESE 18:20:16 32° ESE
Okean 1-7 Rocket 3.4 18:25:34 10° S 18:29:55 72° E 18:31:46 34° NNE
Cosmos 1025 Rocket 3.0 18:26:39 10° S 18:30:58 81° W 18:33:52 20° N
Meteor 2-11 Rocket 4.4 18:25:23 10° S 18:31:32 89° E 18:37:43 10° N
ALOS 2.2 18:28:08 10° SSE 18:32:48 85° WSW 18:37:30 10° NNW
Cosmos 1553 Rocket 4.2 18:27:48 10° SSE 18:33:56 50° E 18:37:24 25° NNE
SL-24 R/B - RUBIN 2 4.2 18:27:42 10° SSW 18:34:02 86° ESE 18:36:47 33° NNE
NOAA 12 4.0 18:29:19 10° SSE 18:34:35 90° E 18:39:52 10° NNW
CZ-4 R/B 3.9 18:33:45 10° SSW 18:36:48 22° W 18:39:56 10° NW
Cosmos 1417 Rocket 4.4 18:31:04 10° S 18:37:05 61° E 18:41:34 19° NNE
Hubble Space Telescope 3.6 18:38:11 10° SSW 18:39:08 11° SSW 18:40:06 10° S
SL-16 R/B 3.7 18:35:05 10° SSE 18:37:22 20° SE 18:37:22 20° SE
DELTA 2 R/B (1) 3.5 18:34:24 10° W 18:40:00 89° SSW 18:41:34 49° ESE
NOSS 3-2 (A) 4.3 18:36:54 10° NW 18:44:33 72° WSW 18:52:46 10° SSE
FENGYUN 3A 3.8 18:39:15 10° S 18:44:36 72° WSW 18:49:59 10° NNW
Cosmos 2322 Rocket 3.7 18:40:01 10° SSE 18:42:07 20° SE 18:42:07 20° SE
Cosmos 2084 3.8 18:41:15 10° SW 18:45:22 56° NW 18:45:58 50° NNW
EO 1 Del DPAF 4.4 18:44:06 20° NNW 18:46:19 40° WNW 18:49:53 10° SW
Cosmos 2360 4.1 18:41:17 10° SSW 18:47:00 86° ESE 18:49:07 41° NNE
Cosmos 2344 4.1 18:43:54 10° S 18:50:39 36° ESE 18:50:39 36° ESE
SL-8 R/B 4.3 18:47:11 10° SSW 18:51:14 43° SSE 18:51:14 43° SSE
NOSS 3-2 (C) 4.1 18:44:38 10° NW 18:52:20 82° WSW 19:00:37 10° SSE
ATLAS 3B R/B 4.4 18:52:17 10° NW 18:57:49 29° WSW 19:03:15 10° SSW
Cosmos 1697 Rocket 3.9 18:55:46 10° SW 19:00:59 38° WNW 19:04:38 18° N
ERS-2 4.4 19:01:41 10° SSW 19:04:44 25° W 19:07:49 10° NW
DNEPR-1 R/B 4.1 18:59:35 10° NNW 19:04:52 82° ENE 19:05:18 76° ESE
Thor Agena Rocket 4.4 19:33:32 48° WSW 19:33:32 48° WSW 19:37:36 10° SSW
CENTAUR R/B 3.0 19:30:53 10° NNW 19:38:57 87° ENE 19:39:08 86° ESE
Cosmos 1980 Rocket 3.7 19:37:11 10° WSW 19:42:10 31° WNW 19:43:13 29° NW
